Temp
19 19 19 20 20 21 21 22 21 22 23 23 24 24 24 25 26 26 25 32 30 28 27 26 26 24 25 23 23 24 23 25 28 30 29 30 29 30 30 28 29 29 26 25 23
18 19 19 19 20 21 21 22 22 22 23 24 24 25 24 25 25 25 33 32 30 29 27 27 25 25 23 24 24 23 23 26 30 30 31 31 30 29 28 28 27 26 27 26 24
17 18 19 19 19 20 21 21 22 22 23 24 24 25 25 25 23 30 33 32 30 29 28 29 27 27 24 24 25 25 24 27 30 31 32 32 29 31 28 26 27 26 26 26 25
18 18 19 20 20 20 21 22 22 23 22 24 24 25 25 24 31 33 32 31 31 30 29 28 28 25 24 24 26 26 27 28 31 33 33 32 32 29 29 28 28 28 27 27 25
18 19 19 20 20 20 21 22 22 22 23 23 24 25 24 25 28 32 31 31 30 29 29 28 28 27 28 28 27 27 29 31 31 32 33 33 32 30 29 29 29 28 28 27 27
17 16 18 19 21 20 21 22 22 22 23 22 24 24 23 28 33 33 32 30 29 28 28 29 30 30 32 30 30 28 29 31 32 31 33 32 30 30 29 29 28 28 27 27 27
15 14 16 19 21 22 22 23 23 23 22 22 23 21 22 27 32 33 33 33 30 29 28 30 30 30 32 29 28 28 25 30 33 30 27 33 30 29 29 29 28 28 28 28 28
13 13 14 18 20 22 23 23 23 23 23 23 22 20 23 33 32 32 32 32 33 31 32 34 33 33 29 29 32 30 27 24 31 31 28 27 28 30 30 29 28 28 28 29 29
13 13 13 16 20 22 23 24 24 24 23 23 21 21 26 31 30 33 33 32 32 32 32 33 33 32 30 28 28 29 25 24 26 27 30 28 27 29 30 30 29 28 28 29 29
14 14 14 17 20 22 24 24 23 24 22 20 21 23 26 31 32 33 33 34 32 32 32 32 30 30 26 27 29 31 30 27 27 27 28 27 26 27 28 30 29 29 28 28 28
16 15 16 19 20 22 24 24 21 23 22 25 26 26 32 33 35 34 34 33 33 33 31 31 30 28 29 29 31 33 31 27 28 28 29 26 26 27 28 27 30 28 28 27 27
17 18 20 21 21 21 21 20 26 29 26 25 27 27 30 32 33 33 34 32 32 31 31 29 28 32 31 32 30 30 31 29 28 29 28 31 30 27 27 27 28 29 29 29 28
20 22 22 22 22 21 21 25 31 29 26 29 27 28 30 31 32 32 32 32 32 31 30 29 31 33 33 33 31 30 29 29 28 28 28 27 27 26 27 27 26 29 28 30 29
21 23 24 23 20 21 22 31 31 29 23 28 31 32 34 34 34 34 34 32 32 31 30 30 33 34 35 33 32 31 33 31 29 27 27 26 27 25 24 24 24 26 26 28 30
23 23 24 24 23 22 31 30 31 29 27 32 31 36 33 32 34 34 35 33 31 32 31 31 34 33 33 34 33 33 35 31 29 28 27 25 25 26 25 23 24 25 26 27 30
25 25 24 23 23 29 29 30 30 25 27 32 32 33 33 32 33 33 34 34 33 32 31 31 33 33 34 36 36 37 35 31 29 27 27 27 27 27 25 26 24 25 26 28 26
26 26 25 24 25 29 28 25 24 25 31 32 32 31 31 32 33 33 32 31 30 31 30 31 33 34 37 36 34 31 28 28 29 27 26 26 27 26 26 27 26 26 25 25 25
27 26 27 28 29 28 27 24 28 30 31 33 32 31 31 31 31 32 30 30 30 30 28 30 31 34 36 35 33 34 30 27 31 26 26 27 26 26 26 27 26 26 26 25 25
27 26 25 31 30 27 22 24 28 29 32 33 31 32 32 33 33 32 30 29 30 29 30 29 31 33 35 36 34 34 33 29 26 25 26 25 26 25 26 28 27 27 27 27 27
25 24 26 31 30 27 23 24 28 34 31 30 29 31 30 31 32 30 30 33 34 32 30 32 31 32 35 37 35 35 33 31 25 27 28 25 25 24 25 24 27 28 28 27 27
24 24 31 31 29 22 25 25 33 32 31 30 28 28 30 30 31 31 31 34 34 35 31 33 29 31 33 33 32 32 31 27 25 24 25 25 24 22 23 24 27 27 27 25 27
22 26 30 30 25 22 25 30 33 33 32 33 31 29 28 30 30 31 33 35 35 34 33 32 27 30 32 33 32 32 34 28 27 28 24 24 25 25 23 25 25 25 25 24 24
21 22 30 31 27 26 27 34 33 32 32 31 31 31 32 31 32 32 34 36 34 33 33 32 27 27 29 30 31 31 31 31 26 25 26 25 26 21 21 24 24 24 24 23 24
22 25 24 26 25 29 29 29 31 32 32 31 31 30 29 28 27 30 31 35 35 33 30 28 26 28 28 29 30 33 32 31 28 26 24 24 26 26 25 26 24 23 25 24 23
20 23 25 24 26 26 28 30 30 30 30 29 30 29 28 27 27 28 29 29 32 29 31 28 28 29 30 32 33 34 32 33 31 26 29 27 27 27 26 27 26 26 25 24 22
19 20 20 21 23 27 25 27 30 31 30 29 29 30 27 28 29 28 28 28 30 29 29 26 28 29 29 30 31 32 33 31 29 26 26 25 26 25 26 27 25 24 24 22 21
22 22 19 21 24 26 26 30 30 30 30 31 31 29 28 30 30 29 27 27 29 31 28 27 26 26 29 27 30 30 31 31 30 28 25 25 26 26 27 27 25 24 24 22 22
Height
803 800 797 795 793 790 788 787 785 784 783 782 780 779 777 775 775 774 773 771 773 776 778 772 777 781 776 785 789 794 814 818 801 797 796 779 788 786 783 791 796 795 804 810 817
801 798 795 793 791 788 786 785 783 782 781 779 778 777 775 773 771 771 766 769 773 772 773 775 787 791 798 796 793 804 821 808 784 782 784 780 779 786 794 799 803 804 807 814 820
800 797 793 791 788 786 784 782 781 780 779 777 776 775 774 772 771 762 762 767 772 774 774 781 788 790 801 804 803 805 816 792 780 774 772 776 787 780 794 811 799 805 807 813 818
797 794 791 788 786 783 782 780 778 777 776 775 774 773 772 772 785 758 761 766 771 772 775 779 788 795 802 808 795 808 789 789 774 767 772 776 773 790 786 795 794 798 802 808 816
794 791 788 785 782 780 778 777 775 775 774 773 772 772 772 773 766 757 761 766 769 770 772 779 785 790 796 790 788 797 788 777 770 768 771 771 777 785 792 791 796 800 804 807 813
791 787 784 781 779 776 775 773 772 772 772 771 771 771 772 779 755 756 760 764 765 770 774 774 771 771 779 782 785 788 788 780 769 771 771 779 785 782 796 794 800 802 805 807 808
787 784 780 777 775 773 772 771 770 770 769 769 770 771 773 764 754 755 758 759 761 764 767 765 762 772 768 785 772 778 805 781 773 780 792 776 799 799 790 795 801 803 805 805 805
784 780 776 774 772 770 769 768 768 767 767 767 768 771 770 751 755 756 758 759 760 761 760 756 756 759 770 774 780 790 803 825 782 776 792 793 821 796 790 798 803 804 805 805 806
781 777 773 770 768 767 766 766 766 766 766 766 769 769 766 750 753 752 753 755 756 756 754 753 754 760 766 788 805 796 831 835 821 796 784 793 817 801 791 795 799 803 804 803 803
776 773 770 767 765 764 764 764 765 766 766 768 768 774 752 747 746 749 751 751 754 754 756 757 761 776 787 798 822 805 812 821 823 805 794 802 816 807 801 800 800 797 798 801 802
773 769 767 765 763 763 764 764 768 770 765 760 757 753 740 741 742 745 748 750 751 757 774 761 781 795 782 785 780 778 794 813 811 793 798 803 813 809 803 806 806 804 799 798 800
769 766 764 763 763 763 764 764 758 758 766 746 747 748 741 742 750 743 745 759 761 778 768 780 792 761 758 766 778 785 787 801 798 789 795 777 789 798 803 806 806 805 800 798 798
767 765 763 762 762 762 762 757 752 754 767 749 741 744 738 736 748 747 743 752 764 775 776 791 767 750 756 758 773 780 789 793 802 799 793 798 806 812 803 798 800 796 796 793 794
767 764 763 762 766 763 760 754 753 755 794 767 747 736 731 731 748 734 737 749 762 777 774 780 750 756 755 765 767 785 758 773 791 808 824 804 839 825 815 808 801 799 797 797 791
767 764 763 762 762 762 756 755 754 753 816 746 744 724 727 743 741 742 733 744 768 769 771 780 762 765 767 757 755 771 749 770 785 802 807 820 834 822 814 821 811 801 800 794 790
766 764 763 762 761 756 754 752 753 797 811 758 738 742 747 745 744 739 740 737 743 762 763 767 741 750 748 736 740 734 752 771 786 806 827 810 817 822 828 821 819 813 797 791 790
764 764 762 762 758 755 756 755 799 812 751 759 755 747 754 758 753 752 759 766 779 790 792 769 755 739 728 745 740 756 789 826 830 838 843 815 821 827 812 806 808 799 798 791 792
760 760 758 756 755 755 758 777 796 766 757 737 746 751 764 756 756 756 767 779 764 771 793 798 798 748 729 744 760 759 783 826 830 852 837 814 838 825 802 798 796 787 783 786 780
757 755 754 749 750 756 769 798 784 764 743 749 753 766 767 754 754 759 769 776 763 766 791 796 784 734 725 727 741 759 780 773 818 829 836 839 827 810 796 786 778 782 772 776 773
755 754 750 748 750 756 780 794 770 737 740 748 779 766 780 766 768 771 771 749 752 746 748 765 789 751 736 725 733 746 748 792 817 845 843 845 844 843 825 800 777 766 760 769 771
754 758 746 748 752 765 789 780 749 738 735 757 771 774 766 768 761 766 769 747 740 742 741 751 776 771 748 760 766 763 772 786 800 818 845 859 856 822 823 797 773 772 768 776 777
757 771 747 751 772 774 778 755 735 741 733 738 747 762 769 758 765 763 763 748 730 733 757 750 782 792 771 745 740 750 760 779 811 815 825 834 845 804 805 792 785 779 781 783 787
769 766 755 755 787 781 762 743 741 746 749 750 757 755 748 757 768 757 749 731 729 740 754 752 788 813 794 767 749 760 761 761 781 792 815 832 835 815 808 801 794 792 786 790 792
769 783 770 762 765 769 768 767 761 743 750 750 754 748 761 773 767 772 762 739 733 739 743 752 788 795 815 793 772 766 763 763 775 806 820 821 811 803 804 798 798 798 788 787 780
777 788 783 795 777 773 766 768 770 771 758 756 764 768 774 791 786 782 770 761 748 749 750 762 790 780 775 764 761 756 764 757 769 787 795 800 804 797 790 789 787 787 786 789 785
796 799 790 791 781 774 776 781 774 769 769 777 777 771 776 786 782 787 779 774 771 759 763 768 790 781 786 769 765 768 760 761 768 786 791 800 803 788 783 782 788 792 793 795 790
796 794 796 793 786 784 786 775 775 766 766 764 767 774 778 772 762 761 762 762 762 764 772 777 789 799 804 785 775 793 772 769 770 769 788 809 790 783 786 785 786 788 790 793 790
Wind_Speed
20 20 19 19 19 18 17 15 16 14 13 12 12 12 13 13 7 2 5 5 13 23 23 25 16 14 11 6 1 3 3 2 3 3 6 20 21 6 5 19 10 6 11 19 31
20 20 20 20 18 18 17 16 16 14 12 12 12 12 12 13 5 8 6 9 20 24 25 24 18 8 5 5 6 5 1 4 3 3 5 15 16 14 12 13 14 18 18 24 30
21 21 21 20 20 18 17 16 15 15 12 12 11 11 9 9 2 5 17 22 24 25 18 18 26 4 6 3 3 3 4 4 7 8 3 10 17 12 19 13 23 22 22 24 30
22 22 21 21 19 18 17 15 15 13 13 12 11 9 8 2 5 2 22 20 23 24 19 12 10 5 4 7 6 4 11 13 6 6 4 4 9 17 14 12 20 21 22 21 23
23 23 22 21 20 19 16 15 14 13 13 13 10 5 2 1 7 6 24 21 27 25 16 8 6 5 5 7 10 9 14 7 11 2 4 6 7 14 10 21 20 21 21 18 21
25 23 22 22 19 19 16 14 13 13 13 12 7 1 2 2 5 13 24 23 25 24 15 17 11 15 4 6 5 2 12 18 7 12 3 12 16 10 16 18 20 21 20 17 18
25 22 21 20 18 17 15 12 11 11 11 8 2 5 1 10 5 18 24 26 25 27 9 27 28 8 8 3 9 5 6 15 2 4 4 5 9 15 21 20 20 19 19 19 20
23 22 20 19 17 15 13 10 9 9 6 4 5 4 6 5 8 18 17 14 19 20 23 23 23 9 4 5 4 4 6 9 6 4 5 6 3 15 19 22 18 16 15 16 16
23 21 20 18 15 13 11 9 6 2 4 4 5 2 7 3 18 19 19 10 21 22 26 25 15 3 4 5 4 2 5 4 9 9 3 5 5 2 11 14 14 16 15 15 15
23 21 19 16 12 11 8 5 2 1 2 1 3 3 7 7 17 18 23 15 7 5 5 7 1 1 2 4 2 3 7 1 4 4 8 13 4 3 4 4 13 12 9 9 8
23 20 16 11 9 8 4 0 3 2 3 9 6 4 3 5 17 12 23 13 3 2 5 6 1 7 11 7 5 3 6 12 4 11 4 12 9 4 3 3 9 11 10 9 9
21 15 11 7 6 5 3 2 6 2 6 11 12 8 16 10 3 7 19 6 3 5 4 6 8 15 8 5 8 8 7 4 8 3 4 8 5 9 4 4 7 12 13 13 8
17 12 8 5 5 4 5 11 8 13 2 7 6 6 7 11 9 10 12 7 3 5 8 6 12 6 5 5 5 5 9 9 8 3 5 5 7 15 6 5 11 8 8 13 15
16 10 6 3 3 4 7 8 9 6 5 6 4 6 4 4 1 9 14 8 4 10 5 7 15 10 13 5 5 6 9 16 18 7 4 2 1 6 6 22 25 22 6 7 14
14 9 5 2 6 3 4 11 8 3 2 3 6 3 5 8 2 6 16 3 8 7 5 8 7 8 9 16 4 9 13 22 19 5 5 4 2 4 15 15 22 20 10 10 12
11 8 4 3 6 8 17 18 6 5 4 2 8 6 4 1 5 2 6 1 4 5 4 10 8 7 12 15 7 2 5 6 6 3 1 4 4 2 3 2 2 6 10 7 2
9 5 5 6 4 10 19 5 5 3 5 4 5 4 6 5 3 6 7 6 5 3 5 7 7 6 5 2 7 9 8 4 4 4 5 3 4 1 2 1 3 9 4 9 2
9 8 10 16 13 11 10 4 3 6 6 3 4 4 7 6 5 5 7 5 6 4 0 2 11 4 4 7 8 4 7 5 2 4 3 5 5 5 6 3 2 9 12 10 9
10 4 6 3 10 11 5 4 5 5 4 4 5 3 3 4 3 4 8 8 6 7 6 2 7 7 7 4 9 3 2 7 7 3 2 3 2 6 11 10 9 4 3 5 6
6 2 6 7 11 8 4 5 4 2 4 9 5 2 4 6 6 7 7 4 4 8 7 6 3 3 8 3 2 4 4 3 3 4 4 3 3 4 11 20 23 18 2 3 3
3 3 2 15 14 5 2 6 3 5 4 6 5 3 2 4 7 4 4 4 3 2 6 3 4 8 4 3 6 3 4 7 6 4 5 4 2 5 6 14 13 13 15 8 10
4 3 16 22 3 1 2 6 3 3 4 5 4 2 3 5 6 4 2 3 3 2 3 1 5 2 8 6 5 6 4 6 5 3 3 5 2 7 8 18 13 14 13 8 10
2 2 14 5 3 5 7 5 6 7 5 2 1 5 1 7 3 3 3 1 7 5 3 3 3 4 11 8 4 7 2 2 5 4 0 5 4 8 7 8 11 11 11 9 13
3 4 5 3 0 4 5 7 7 11 11 5 5 8 7 9 8 7 9 5 4 4 3 7 3 5 4 8 3 4 5 5 4 4 5 3 6 4 10 11 12 9 7 2 9
4 2 1 4 6 9 4 3 8 6 6 10 9 12 6 6 6 7 7 9 6 10 4 4 3 2 3 5 4 1 5 8 5 8 6 5 6 4 3 1 7 5 8 5 4
3 4 5 4 6 7 7 7 6 4 6 6 5 6 8 4 2 4 5 4 1 8 6 6 3 4 8 10 10 5 9 13 8 8 10 10 1 6 3 2 7 8 8 5 2
8 6 3 6 8 4 6 5 5 4 3 3 2 3 6 4 4 6 6 6 7 1 2 3 3 5 4 8 5 7 6 4 4 7 16 7 9 6 5 6 5 7 10 8 5
Wind_Direction
343 341 340 338 336 336 337 335 334 339 337 338 336 336 340 336 336 221 226 171 156 153 149 153 152 76 60 77 81 138 58 318 289 8 123 120 124 126 123 135 153 192 144 167 164
339 336 334 333 332 331 333 332 330 334 333 331 332 334 340 334 328 219 195 183 155 157 159 157 135 94 48 3 353 38 85 239 224 256 170 141 131 124 126 137 114 113 146 153 160
333 330 328 328 328 330 329 328 326 327 328 327 329 330 337 332 298 234 176 157 163 159 178 161 137 113 124 170 191 183 224 257 269 238 260 135 137 143 139 145 149 154 151 152 160
330 327 325 324 324 324 323 321 321 322 322 321 322 327 330 352 156 256 167 167 167 165 156 140 147 125 131 187 195 252 238 247 257 205 173 179 128 143 152 163 157 150 156 160 159
327 324 321 319 320 320 320 318 318 320 319 321 318 324 41 54 248 173 165 176 173 173 176 158 189 150 207 195 168 214 268 231 254 273 124 200 147 150 146 147 152 154 164 170 169
325 320 317 316 317 315 316 314 314 316 321 319 320 117 98 260 203 176 173 172 183 179 193 206 213 204 250 245 176 100 274 271 230 251 233 119 121 115 152 151 158 161 175 182 180
326 320 317 315 313 309 310 310 311 314 323 320 329 120 104 230 208 174 181 186 189 188 188 212 228 222 175 121 163 124 323 260 235 103 60 124 116 143 158 158 167 175 182 189 193
326 322 318 316 312 306 305 308 310 316 330 328 144 131 239 200 167 169 175 200 210 222 232 256 255 256 103 109 157 110 100 343 357 5 32 93 141 142 152 163 172 181 191 200 199
327 321 318 315 310 304 306 309 313 359 18 99 123 155 264 59 171 194 183 191 211 231 243 259 272 207 46 94 52 288 112 284 295 349 94 64 149 310 162 163 167 178 198 212 212
329 323 320 315 310 305 316 304 300 96 105 101 262 327 270 210 184 195 200 211 197 245 266 225 45 144 62 82 232 150 118 164 272 280 74 84 61 319 348 218 183 191 194 206 184
329 323 320 321 315 322 346 245 28 12 203 196 203 246 320 255 184 186 198 215 235 48 260 284 339 243 241 161 190 194 140 187 201 247 296 138 147 238 273 320 254 205 204 197 175
335 331 326 325 320 328 324 176 215 134 297 226 235 268 274 264 234 232 187 159 159 236 323 346 275 271 266 170 164 178 217 142 122 241 236 119 152 170 189 255 287 220 208 202 167
343 338 336 338 337 326 243 243 325 330 65 290 193 199 236 141 198 210 148 180 179 229 251 198 254 294 241 285 38 179 178 160 136 177 18 28 348 67 17 36 331 215 210 196 179
346 343 339 12 32 346 264 324 326 286 55 277 199 265 173 106 325 188 173 151 207 215 244 237 264 255 271 284 125 326 169 137 146 141 198 145 110 91 174 175 223 245 263 265 193
349 346 337 278 310 225 289 334 317 68 19 208 199 255 147 151 179 218 179 105 202 226 110 251 315 258 259 252 122 232 126 154 171 143 106 225 119 219 157 197 214 231 256 250 218
346 346 323 289 279 308 336 323 342 48 267 230 169 174 116 234 262 24 162 29 177 217 248 249 258 208 224 249 224 10 33 84 151 111 32 202 151 126 129 163 254 254 241 208 6
324 309 278 248 249 319 343 24 50 121 323 208 174 155 168 206 238 191 172 216 185 86 311 326 288 284 203 354 2 65 55 349 46 0 238 35 29 62 338 96 216 251 257 326 305
318 269 262 257 261 289 3 52 56 243 217 190 142 122 181 183 248 169 137 201 259 125 53 226 317 237 204 165 191 170 134 157 239 190 254 27 21 298 274 130 341 214 159 202 240
335 289 247 238 220 238 71 57 222 243 305 78 35 100 305 237 184 162 187 197 236 162 169 203 286 313 162 162 124 264 181 178 111 41 63 99 321 274 323 345 338 185 116 187 219
346 281 254 173 174 121 76 243 249 211 127 70 58 345 265 257 162 169 164 228 200 179 162 217 345 348 303 76 348 139 175 46 29 146 249 53 60 279 1 21 336 327 1 347 314
25 30 278 161 150 54 153 240 326 21 92 101 168 250 265 265 187 98 191 324 141 185 102 82 92 294 34 18 231 339 338 66 113 110 142 118 253 220 196 184 208 255 291 338 337
12 9 167 155 42 272 227 213 138 70 4 88 100 113 242 27 22 74 88 135 5 52 62 338 135 288 263 241 263 126 348 145 138 193 118 117 243 195 230 199 218 251 259 288 312
40 274 158 181 350 312 304 328 71 53 38 5 291 211 186 11 68 139 232 27 58 67 92 322 16 15 346 357 344 63 40 324 126 93 81 114 199 169 246 218 230 245 271 304 279
42 14 342 38 186 280 25 350 38 27 41 68 11 45 46 21 8 30 355 352 60 59 130 80 85 140 194 228 243 7 332 68 112 102 157 194 179 180 181 169 193 228 217 313 12
25 337 134 316 334 332 61 17 48 28 18 25 16 35 49 18 19 7 353 351 1 4 55 85 51 23 276 357 290 235 307 33 70 149 137 181 165 181 211 48 110 129 99 60 5
53 26 348 290 297 19 17 342 62 32 55 345 48 33 63 81 135 301 17 23 324 335 28 4 345 32 353 342 2 79 45 71 57 92 73 119 276 206 237 240 126 117 127 135 93
348 329 96 290 335 31 329 37 37 49 354 36 10 51 22 307 265 244 213 221 230 231 318 72 63 24 318 323 8 15 352 31 92 135 140 166 212 142 164 154 158 125 116 136 139